Tracking 31027 objects as of 19-Jul-2025
HD Live streaming from Space Station
objects crossing your sky now

DELTA 1 DEB

Track DELTA 1 DEB now!
10-day predictions


NORAD ID: 12177
Int'l Code: 1978-026S
Perigee: 808.1 km
Apogee: 1,031.0 km
Inclination: 98.9 °
Period: 103.3 minutes
Semi major axis: 7290 km
RCS: 0.0985 m2 (small)
Launch date: March 5, 1978
Source: United States (US)
Launch site: AIR FORCE WESTERN TEST RANGE (AFWTR)

Note: This is SATELLITE DEBRIS
Your satellite tracking list
ATLAS 5 CENTAUR DEB
Track 1 satellite(s)




NASA's NSSDC Master Catalog

Two Line Element Set (TLE):
1 12177U 78026S   25199.56443267  .00000181  00000-0  15220-3 0  9997
2 12177  98.9291 310.7558 0152840 358.2381  26.0218 13.94644456253361
Source of the keplerian elements: AFSPC